Location: Landeleau
(48.2273°N, 3.7285°W)
Time: 13:28:13
(UTC+00:00)

Cosmos 2228 - Pass Details

Date: 30 March 2020
Orbit: 588 x 619 km, 82.5° (Epoch: 02 June)

Event Time Altitude Azimuth Distance (km) Brightness Sun altitude
Exits shadow 20:22:40 30° 92° (E) 1,094 3.8 -16.6°
Maximum altitude 20:22:45 30° 90° (E) 1,094 3.8 -16.7°
Drops below altitude 10° 20:26:31 10° 29° (NNE) 1,957 5.6 -17.2°
Sets 20:28:56 0° 19° (NNE) 2,871 6.6 -17.6°
